Weather History for KLJF - July, 2013

Change the Weather History Date:

Monday, July 1, 2013

  Actual Average Record
Temperature  
Mean Temperature 73 °F -  
Max Temperature 84 °F 82 °F 95 °F (1963)
Min Temperature 62 °F 58 °F 42 °F (1960)
Cooling Degree Days 8    
Growing Degree Days 23 (Base 50)    
Moisture  
Dew Point 57 °F    
Average Humidity 60    
Maximum Humidity 94    
Minimum Humidity 29    
Precipitation  
Precipitation 0.00 in - - ()
Sea Level Pressure  
Sea Level Pressure 30.18 in    
Wind  
Wind Speed 3 mph (NNE)    
Max Wind Speed 9 mph    
Max Gust Speed -    
Visibility 10 miles    
Events      
Averages and records for this station are not official NWS values.
T = Trace of Precipitation, MM = Missing Value Source: NWS Daily Summary

Daily Weather History Graph

Daily Weather History Graph

Search for Another Location

Airport or City:

Trip Planner

Search our weather history database for the weather conditions in past years. The results will help you decide how hot, cold, wet, or windy it might be!

Date:

Astronomy

Jul. 01, 2013 Rise Set
Actual Time 5:34 AM CDT 9:08 PM CDT
Civil Twilight 4:57 AM CDT 9:45 PM CDT
Nautical Twilight 4:08 AM CDT 10:35 PM CDT
Astronomical Twilight 3:03 AM CDT 11:39 PM CDT
Moon 1:16 AM CDT (7/1) 3:15 PM CDT (7/1)
Length of Visible Light 16h 48m
Length of Day
15h 33m
Waning Crescent, 35% of the Moon is Illuminated
Jul 1
Waning Crescent
Jul 8
New
Jul 15
First Quarter
Jul 22
Full
Jul 29
Last Quarter

Hourly Weather History & Observations

Time (CDT) Temp. Heat Index Dew Point Humidity Pressure Visibility Wind Dir Wind Speed Gust Speed Precip Events Conditions
12:13 AM 64.4 °F - 60.8 °F 88% 30.16 in 10.0 mi Calm Calm - N/A   Clear
12:33 AM 64.4 °F - 60.8 °F 88% 30.16 in 10.0 mi Calm Calm - N/A   Unknown
12:53 AM 64.4 °F - 60.8 °F 88% 30.16 in 10.0 mi Calm Calm - N/A   Unknown
1:13 AM 64.4 °F - 60.8 °F 88% 30.16 in 10.0 mi Calm Calm - N/A   Unknown
1:33 AM 62.6 °F - 60.8 °F 94% 30.16 in 10.0 mi Calm Calm - N/A   Unknown
1:53 AM 64.4 °F - 60.8 °F 88% 30.16 in 10.0 mi WNW 3.5 mph - N/A   Unknown
2:13 AM 64.4 °F - 59.0 °F 83% 30.16 in 10.0 mi WNW 3.5 mph - N/A   Unknown
2:33 AM 66.2 °F - 57.2 °F 73% 30.17 in 10.0 mi WNW 3.5 mph - N/A   Unknown
2:52 AM 62.6 °F - 59.0 °F 88% 30.17 in 10.0 mi Calm Calm - N/A   Unknown
3:13 AM 64.4 °F - 57.2 °F 77% 30.17 in 10.0 mi WNW 3.5 mph - N/A   Unknown
3:33 AM 64.4 °F - 57.2 °F 77% 30.17 in 10.0 mi WNW 4.6 mph - N/A   Unknown
3:52 AM 64.4 °F - 57.2 °F 77% 30.17 in 10.0 mi NW 4.6 mph - N/A   Unknown
4:13 AM 64.4 °F - 57.2 °F 77% 30.17 in 10.0 mi NW 3.5 mph - N/A   Unknown
4:33 AM 64.4 °F - 57.2 °F 77% 30.17 in 10.0 mi NW 3.5 mph - N/A   Clear
4:52 AM 64.4 °F - 57.2 °F 77% 30.18 in 10.0 mi NW 4.6 mph - N/A   Clear
5:13 AM 64.4 °F - 57.2 °F 77% 30.19 in 10.0 mi NW 3.5 mph - N/A   Scattered Clouds
5:32 AM 62.6 °F - 57.2 °F 82% 30.19 in 10.0 mi NW 3.5 mph - N/A   Mostly Cloudy
5:53 AM 62.6 °F - 57.2 °F 82% 30.19 in 10.0 mi Calm Calm - N/A   Mostly Cloudy
6:13 AM 62.6 °F - 57.2 °F 82% 30.20 in 10.0 mi Calm Calm - N/A   Unknown
6:32 AM 64.4 °F - 57.2 °F 77% 30.20 in 10.0 mi NW 3.5 mph - N/A   Mostly Cloudy
6:53 AM 64.4 °F - 59.0 °F 83% 30.20 in 10.0 mi Calm Calm - N/A   Scattered Clouds
7:13 AM 64.4 °F - 59.0 °F 83% 30.20 in 10.0 mi NW 3.5 mph - N/A   Clear
7:32 AM 64.4 °F - 59.0 °F 83% 30.21 in 10.0 mi NNW 3.5 mph - N/A   Clear
7:53 AM 69.8 °F - 60.8 °F 73% 30.21 in 10.0 mi North 3.5 mph - N/A   Clear
8:12 AM 69.8 °F - 60.8 °F 73% 30.21 in 10.0 mi North 3.5 mph - N/A   Scattered Clouds
8:33 AM 71.6 °F - 60.8 °F 69% 30.21 in 10.0 mi NNE 3.5 mph - N/A   Mostly Cloudy
8:53 AM 71.6 °F - 62.6 °F 73% 30.22 in 10.0 mi Calm Calm - N/A   Scattered Clouds
9:12 AM 73.4 °F - 62.6 °F 69% 30.22 in 10.0 mi North 3.5 mph - N/A   Clear
9:33 AM 73.4 °F - 62.6 °F 69% 30.22 in 10.0 mi North 3.5 mph - N/A   Clear
9:52 AM 75.2 °F - 62.6 °F 65% 30.22 in 10.0 mi North 4.6 mph - N/A   Clear
10:13 AM 77.0 °F - 62.6 °F 61% 30.21 in 10.0 mi North 3.5 mph - N/A   Clear
10:33 AM 78.8 °F - 60.8 °F 54% 30.21 in 10.0 mi Calm Calm - N/A   Clear
10:52 AM 78.8 °F - 55.4 °F 44% 30.21 in 10.0 mi Calm Calm - N/A   Clear
11:13 AM 80.6 °F 80.3 °F 53.6 °F 39% 30.21 in 10.0 mi NE 3.5 mph - N/A   Clear
11:33 AM 80.6 °F 80.5 °F 55.4 °F 42% 30.21 in 10.0 mi NNE 4.6 mph - N/A   Clear
11:52 AM 82.4 °F 81.4 °F 53.6 °F 37% 30.21 in 10.0 mi North 5.8 mph - N/A   Clear
12:13 PM 82.4 °F 81.4 °F 53.6 °F 37% 30.20 in 10.0 mi NNE 3.5 mph - N/A   Clear
12:33 PM 82.4 °F - 51.8 °F 35% 30.20 in 10.0 mi NNE 5.8 mph - N/A   Clear
12:52 PM 84.2 °F - 51.8 °F 33% 30.20 in 10.0 mi ENE 6.9 mph - N/A   Clear
1:13 PM 82.4 °F - 51.8 °F 35% 30.20 in 10.0 mi North 4.6 mph - N/A   Scattered Clouds
1:33 PM 82.4 °F - 50.0 °F 32% 30.20 in 10.0 mi ENE 6.9 mph - N/A   Scattered Clouds
1:53 PM 82.4 °F - 51.8 °F 35% 30.20 in 10.0 mi North 5.8 mph - N/A   Scattered Clouds
2:13 PM 80.6 °F - 51.8 °F 37% 30.20 in 7.0 mi NNE 5.8 mph - N/A   Scattered Clouds
2:32 PM 82.4 °F - 48.2 °F 30% 30.19 in 7.0 mi NNE 5.8 mph - N/A   Scattered Clouds
2:53 PM 82.4 °F - 48.2 °F 30% 30.18 in 10.0 mi North 8.1 mph - N/A   Clear
3:13 PM 84.2 °F - 48.2 °F 29% 30.18 in 10.0 mi NE 6.9 mph - N/A   Clear
3:33 PM 84.2 °F - 50.0 °F 30% 30.17 in 10.0 mi NE 9.2 mph - N/A   Scattered Clouds
3:53 PM 84.2 °F - 51.8 °F 33% 30.17 in 10.0 mi NE 5.8 mph - N/A   Scattered Clouds
4:12 PM 84.2 °F - 51.8 °F 33% 30.17 in 10.0 mi NNE 8.1 mph - N/A   Clear
4:33 PM 84.2 °F - 51.8 °F 33% 30.16 in 10.0 mi NNE 5.8 mph - N/A   Scattered Clouds
4:52 PM 84.2 °F - 51.8 °F 33% 30.16 in 10.0 mi North 8.1 mph - N/A   Scattered Clouds
5:13 PM 82.4 °F 81.4 °F 53.6 °F 37% 30.18 in 10.0 mi ENE 8.1 mph - N/A   Mostly Cloudy
5:33 PM 82.4 °F 81.4 °F 53.6 °F 37% 30.17 in 10.0 mi East 5.8 mph - N/A   Scattered Clouds
5:52 PM 82.4 °F 81.4 °F 53.6 °F 37% 30.16 in 10.0 mi ENE 5.8 mph - N/A   Clear
6:13 PM 82.4 °F 81.4 °F 53.6 °F 37% 30.17 in 10.0 mi ENE 6.9 mph - N/A   Scattered Clouds
6:33 PM 80.6 °F 80.5 °F 55.4 °F 42% 30.17 in 10.0 mi ENE 5.8 mph - N/A   Mostly Cloudy
6:52 PM 80.6 °F 80.5 °F 55.4 °F 42% 30.17 in 10.0 mi ENE 5.8 mph - N/A   Scattered Clouds
7:13 PM 80.6 °F 80.5 °F 55.4 °F 42% 30.17 in 10.0 mi East 4.6 mph - N/A   Clear
7:33 PM 80.6 °F 80.5 °F 55.4 °F 42% 30.17 in 10.0 mi East 4.6 mph - N/A   Clear
7:52 PM 80.6 °F 80.5 °F 55.4 °F 42% 30.17 in 10.0 mi East 3.5 mph - N/A   Clear
8:13 PM 78.8 °F - 57.2 °F 47% 30.17 in 10.0 mi ENE 3.5 mph - N/A   Clear
8:32 PM 77.0 °F - 59.0 °F 54% 30.17 in 10.0 mi East 3.5 mph - N/A   Clear
8:53 PM 73.4 °F - 59.0 °F 61% 30.18 in 10.0 mi East 3.5 mph - N/A   Clear
9:13 PM 73.4 °F - 59.0 °F 61% 30.18 in 10.0 mi Calm Calm - N/A   Clear
9:32 PM 73.4 °F - 59.0 °F 61% 30.18 in 10.0 mi ENE 3.5 mph - N/A   Clear
9:53 PM 71.6 °F - 59.0 °F 64% 30.18 in 10.0 mi Calm Calm - N/A   Clear
10:13 PM 71.6 °F - 57.2 °F 60% 30.18 in 10.0 mi Calm Calm - N/A   Scattered Clouds
10:32 PM 69.8 °F - 59.0 °F 68% 30.18 in 10.0 mi Calm Calm - N/A   Scattered Clouds
10:53 PM 69.8 °F - 59.0 °F 68% 30.18 in 10.0 mi Calm Calm - N/A   Scattered Clouds
11:13 PM 68.0 °F - 59.0 °F 73% 30.18 in 10.0 mi Calm Calm - N/A   Scattered Clouds
11:32 PM 66.2 °F - 60.8 °F 83% 30.18 in 10.0 mi Calm Calm - N/A   Unknown
11:53 PM 66.2 °F - 59.0 °F 78% 30.18 in 10.0 mi Calm Calm - N/A   Unknown